Location: Unspecified
(44.4377°N, 88.0525°W)
Time: 17:38:26
(UTC-05:00)

Resurs 1-4 Rocket - Visible Passes

Search period start: 19 August 2017 00:00
Search period end: 29 August 2017 00:00
Orbit: 799 x 815 km, 98.5° (Epoch: 18 August)

Date Brightness Start Highest point End Pass type
(mag) Time Alt. Az. Time Alt. Az. Time Alt. Az.
19 Aug 4.6 01:37:20 10° E 01:37:45 10° E 01:38:10 10° E visible
19 Aug 2.0 03:13:07 10° NNE 03:18:25 81° ESE 03:19:26 59° S visible
19 Aug 3.9 04:54:32 10° NNW 04:57:35 16° WNW 05:00:30 10° W visible
20 Aug 2.6 02:48:41 10° NNE 02:53:47 49° E 02:54:28 46° SE visible
20 Aug 3.4 04:29:09 10° N 04:33:19 24° WNW 04:35:33 18° W visible
21 Aug 3.4 02:24:28 10° NE 02:29:04 30° E 02:29:32 29° ESE visible
21 Aug 2.8 04:04:09 10° N 04:08:57 38° WNW 04:10:36 30° WSW visible
22 Aug 4.1 02:00:40 10° NE 02:04:15 18° E 02:04:34 18° E visible
22 Aug 2.2 03:39:20 10° N 03:44:31 61° WNW 03:45:39 49° WSW visible
23 Aug 4.6 01:38:15 10° ENE 01:39:22 11° E 01:39:37 11° E visible
23 Aug 2.0 03:14:41 10° NNE 03:19:59 83° ESE 03:20:42 67° S visible
23 Aug 3.9 04:56:11 10° NNW 04:59:07 15° WNW 05:01:46 11° W visible
24 Aug 2.6 02:50:14 10° NNE 02:55:22 51° E 02:55:44 50° ESE visible
24 Aug 3.4 04:30:47 10° NNW 04:34:52 24° WNW 04:36:49 19° W visible
25 Aug 3.4 02:26:00 10° NNE 02:30:39 31° E 02:30:47 31° E visible
25 Aug 2.8 04:05:44 10° N 04:10:31 36° WNW 04:11:52 31° W visible
26 Aug 4.1 02:02:10 10° NE 02:05:49 19° E 02:05:49 19° E visible
26 Aug 2.2 03:40:55 10° N 03:46:05 59° WNW 03:46:53 52° WSW visible
27 Aug 4.6 01:39:27 10° ENE 01:40:52 11° E 01:40:52 11° E visible
27 Aug 1.9 03:16:16 10° NNE 03:21:33 86° ESE 03:21:56 77° S visible
27 Aug 3.9 04:57:51 10° NNW 05:00:40 15° WNW 05:03:01 11° W visible
28 Aug 2.6 02:51:47 10° NNE 02:56:57 53° E 02:56:58 53° E visible
28 Aug 3.4 04:32:23 10° NNW 04:36:25 23° WNW 04:38:04 20° W visible
